State College, PA

1:49 AM EDT on April 23, 2017 (GMT -0400)
University Park

Weather History for KUNV - November, 2012

Change the Weather History Date:

Tuesday, November 20, 2012

  Actual Average Record
Temperature  
Mean Temperature 37 °F -  
Max Temperature 46 °F 48 °F 70 °F (1942)
Min Temperature 28 °F 31 °F 18 °F (1951)
Degree Days  
Heating Degree Days 28    
Moisture  
Dew Point 30 °F    
Average Humidity 81    
Maximum Humidity 100    
Minimum Humidity 57    
Precipitation  
Precipitation 0.00 in - - ()
Sea Level Pressure  
Sea Level Pressure 30.15 in    
Wind  
Wind Speed 0 mph (North)    
Max Wind Speed 0 mph    
Max Gust Speed -    
Visibility 8 miles    
Events      
Averages and records for this station are not official NWS values.
T = Trace of Precipitation, MM = Missing Value Source: NWS Daily Summary

Daily Weather History Graph

Daily Weather History Graph

Search for Another Location

Airport or City:

Trip Planner

Search our weather history database for the weather conditions in past years. The results will help you decide how hot, cold, wet, or windy it might be!

Date:

Astronomy

Nov. 20, 2012 Rise Set
Actual Time 7:04 AM EST 4:49 PM EST
Civil Twilight 6:35 AM EST 5:18 PM EST
Nautical Twilight 6:01 AM EST 5:52 PM EST
Astronomical Twilight 5:28 AM EST 6:24 PM EST
Moon 12:36 PM EST (11/20) No Moon Set
Length of Visible Light 10h 43m
Length of Day
9h 44m
Waxing Crescent, 51% of the Moon is Illuminated
Nov 20
Waxing Crescent
Nov 28
Full
Dec 6
Last Quarter
Dec 13
New
Dec 20
First Quarter

Hourly Weather History & Observations

Time (EST) Temp. Dew Point Humidity Pressure Visibility Wind Dir Wind Speed Gust Speed Precip Events Conditions
12:15 AM 32.4 °F 30.6 °F 93% 30.22 in 7.0 mi Calm Calm - N/A   Clear
12:35 AM 31.8 °F 29.5 °F 91% 30.21 in 7.0 mi Calm Calm - N/A   Clear
12:55 AM 32.0 °F 30.4 °F 94% 30.21 in 7.0 mi Calm Calm - N/A   Clear
1:15 AM 30.4 °F 28.4 °F 92% 30.21 in 5.0 mi Calm Calm - N/A   Clear
1:35 AM 30.6 °F 29.1 °F 94% 30.20 in 4.0 mi Calm Calm - N/A   Clear
1:55 AM 29.5 °F 28.2 °F 95% 30.20 in 2.0 mi Calm Calm - N/A   Clear
2:15 AM 30.0 °F 28.9 °F 96% 30.20 in 4.0 mi Calm Calm - N/A   Clear
2:35 AM 29.7 °F 28.4 °F 95% 30.19 in 5.0 mi Calm Calm - N/A   Clear
3:15 AM 30.0 °F 28.8 °F 95% 30.19 in 4.0 mi Calm Calm - N/A   Clear
3:35 AM 29.3 °F 28.2 °F 96% 30.18 in 7.0 mi Calm Calm - N/A   Clear
5:53 AM 28.4 °F 26.6 °F 93% 30.18 in 4.0 mi Calm Calm - N/A   Clear
6:53 AM 28.4 °F 28.4 °F 100% 30.18 in 5.0 mi Calm Calm - N/A   Clear
7:53 AM 28.4 °F 26.6 °F 93% 30.18 in 5.0 mi Calm Calm - N/A   Clear
8:53 AM 32.0 °F 30.2 °F 93% 30.18 in 6.0 mi Calm Calm - N/A   Clear
9:53 AM 33.8 °F 32.0 °F 93% 30.18 in 5.0 mi Calm Calm - N/A   Clear
10:53 AM 37.4 °F 33.8 °F 87% 30.17 in 7.0 mi Calm Calm - N/A   Clear
11:53 AM 39.2 °F 33.8 °F 81% 30.15 in 7.0 mi Calm Calm - N/A   Clear
12:53 PM 44.6 °F 32.0 °F 61% 30.11 in 7.0 mi Calm Calm - N/A   Clear
1:53 PM 44.6 °F 32.0 °F 61% 30.09 in 7.0 mi Calm Calm - N/A   Clear
2:53 PM 46.4 °F 32.0 °F 57% 30.07 in 7.0 mi Calm Calm - N/A   Clear
3:53 PM 46.4 °F 32.0 °F 57% 30.08 in 10.0 mi Calm Calm - N/A   Clear
4:53 PM 44.6 °F 32.0 °F 61% 30.09 in 10.0 mi Calm Calm - N/A   Clear
5:53 PM 42.8 °F 30.2 °F 61% 30.11 in 10.0 mi Calm Calm - N/A   Clear
6:53 PM 41.0 °F 30.2 °F 65% 30.12 in 10.0 mi Calm Calm - N/A   Clear
7:53 PM 41.0 °F 30.2 °F 65% 30.12 in 10.0 mi Calm Calm - N/A   Clear
8:15 PM 39.2 °F 30.9 °F 72% 30.13 in 10.0 mi Calm Calm - N/A   Clear
8:35 PM 39.6 °F 31.1 °F 72% 30.13 in 10.0 mi Calm Calm - N/A   Clear
8:53 PM 39.2 °F 30.2 °F 70% 30.13 in 10.0 mi Calm Calm - N/A   Clear
8:55 PM 38.7 °F 31.1 °F 74% 30.13 in 10.0 mi Calm Calm - N/A   Clear
9:15 PM 36.5 °F 30.7 °F 80% 30.13 in 10.0 mi Calm Calm - N/A   Clear
9:35 PM 36.7 °F 30.9 °F 80% 30.13 in 10.0 mi Calm Calm - N/A   Clear
9:55 PM 36.7 °F 30.7 °F 79% 30.13 in 10.0 mi Calm Calm - N/A   Clear
10:15 PM 37.6 °F 31.1 °F 77% 30.12 in 10.0 mi Calm Calm - N/A   Clear
10:35 PM 36.5 °F 31.1 °F 81% 30.12 in 10.0 mi Calm Calm - N/A   Scattered Clouds
10:55 PM 36.9 °F 30.9 °F 79% 30.13 in 10.0 mi Calm Calm - N/A   Mostly Cloudy
11:15 PM 36.1 °F 30.9 °F 81% 30.13 in 10.0 mi Calm Calm - N/A   Mostly Cloudy
11:35 PM 34.9 °F 30.7 °F 85% 30.13 in 10.0 mi Calm Calm - N/A   Mostly Cloudy
11:55 PM 35.8 °F 30.9 °F 82% 30.13 in 10.0 mi Calm Calm - N/A   Scattered Clouds